EW2958 Weather Reports


Display with metric or nautical units.
time (UTC)temp
F
wind
direction
speed
MPH
gust
MPH
rain 1hr
in
rain 24hr
in
rain mn
in
humidity
%
barometer
mb
20260831021546 54 265 2.0 4.0 0.00 0.00 0.00 76 1030.7
20260831020023 53 277 3.0 6.0 0.00 0.00 0.00 77 1031.0
20260831014522 53 202 3.0 8.0 0.00 0.00 0.00 78 1031.2
20260831013018 52 272 2.0 6.0 0.00 0.00 0.00 80 1031.5
20260831011515 51 259 3.0 8.0 0.00 0.00 0.00 80 1031.9
20260831010031 51 284 3.0 7.0 0.00 0.00 0.00 81 1031.9
20260831004510 48 238 3.0 9.0 0.00 0.00 0.00 83 1032.0
20260831003007 48 281 4.0 8.0 0.00 0.00 0.00 83 1032.1
20260831001513 48 264 4.0 7.0 0.00 0.00 0.00 84 1032.3
20260831000005 48 256 2.0 7.0 0.00 0.00 0.00 85 1032.2
20260830234600 47 263 0.0 7.0 0.00 0.00 0.00 85 1032.1
20260830233056 47 263 1.0 6.0 0.00 0.00 0.00 85 1032.3
20260830231555 47 255 2.0 5.0 0.00 0.00 0.00 86 1032.4
20260830230055 47 272 1.0 4.0 0.00 0.00 0.00 86 1032.4
20260830224602 46 271 2.0 7.0 0.00 0.00 0.00 87 1032.4
20260830223053 46 266 1.0 7.0 0.00 0.00 0.00 87 1032.3
20260830221553 46 276 3.0 5.0 0.00 0.00 0.00 87 1032.4
20260830220101 46 248 1.0 6.0 0.00 0.00 0.00 87 1032.4
20260830214600 46 278 1.0 5.0 0.00 0.00 0.00 87 1032.2
20260830213050 46 248 3.0 7.0 0.00 0.00 0.00 88 1032.3
20260830211549 46 277 2.0 7.0 0.00 0.00 0.00 88 1032.2
20260830210049 46 272 1.0 5.0 0.00 0.00 0.00 87 1032.2
20260830204547 46 266 0.0 4.0 0.00 0.00 0.00 87 1032.1
20260830203051 46 258 2.0 5.0 0.00 0.00 0.00 87 1032.0
20260830201544 46 266 1.0 5.0 0.00 0.00 0.00 87 1032.0
20260830200044 47 270 0.0 4.0 0.00 0.00 0.00 87 1031.9
20260830194545 47 277 2.0 6.0 0.00 0.00 0.00 87 1031.8
20260830193042 47 274 2.0 7.0 0.00 0.00 0.00 87 1031.8
20260830191541 47 265 1.0 5.0 0.00 0.00 0.00 87 1031.7
20260830190041 47 264 1.0 6.0 0.00 0.00 0.00 87 1031.7
20260830184539 47 259 2.0 6.0 0.00 0.00 0.00 87 1031.8
20260830183038 47 269 2.0 5.0 0.00 0.00 0.00 87 1031.9
20260830181545 47 262 1.0 4.0 0.00 0.00 0.00 87 1031.9
20260830180051 47 270 2.0 7.0 0.00 0.00 0.00 87 1031.9
20260830174536 47 271 3.0 7.0 0.00 0.00 0.00 88 1032.0
20260830173054 47 274 2.0 6.0 0.00 0.00 0.00 88 1032.1
20260830171530 47 271 4.0 7.0 0.00 0.00 0.00 88 1032.2
20260830170030 47 268 3.0 9.0 0.00 0.00 0.00 88 1032.3
20260830164529 47 257 4.0 10.0 0.00 0.00 0.00 88 1032.5
20260830163027 47 271 5.0 9.0 0.00 0.00 0.00 88 1032.4
20260830161525 47 262 6.0 11.0 0.00 0.00 0.00 88 1032.4
20260830160031 47 269 5.0 8.0 0.00 0.00 0.00 88 1032.4
20260830154523 47 262 6.0 11.0 0.00 0.00 0.00 88 1032.3
20260830153021 47 259 5.0 11.0 0.00 0.00 0.00 89 1032.4
20260830151521 47 283 6.0 10.0 0.00 0.00 0.00 89 1032.4
20260830150017 47 282 5.0 8.0 0.00 0.00 0.00 89 1032.3
20260830144518 47 262 4.0 7.0 0.00 0.00 0.00 89 1032.3
20260830143015 47 266 4.0 7.0 0.00 0.00 0.00 89 1032.4
20260830141511 47 283 4.0 6.0 0.00 0.00 0.00 89 1032.3
20260830140007 47 271 3.0 6.0 0.00 0.00 0.00 89 1032.4
20260830134520 47 274 3.0 5.0 0.00 0.00 0.00 88 1032.5
20260830133006 48 279 2.0 4.0 0.00 0.00 0.00 87 1032.6
20260830131508 49 287 2.0 3.0 0.00 0.00 0.00 86 1032.8
20260830130007 49 272 0.0 2.0 0.00 0.00 0.00 86 1032.7
20260830124504 50 276 1.0 4.0 0.00 0.00 0.00 85 1032.8
20260830123004 50 275 1.0 4.0 0.00 0.00 0.00 85 1032.8
20260830121503 50 271 0.0 3.0 0.00 0.00 0.00 84 1032.8
20260830120002 51 284 1.0 4.0 0.00 0.00 0.00 84 1032.7
20260830114502 51 346 2.0 5.0 0.00 0.00 0.00 83 1032.6
20260830113001 51 326 0.0 3.0 0.00 0.00 0.00 84 1032.6
20260830111501 51 35 1.0 4.0 0.00 0.00 0.00 83 1032.6
20260830110135 51 338 0.0 3.0 0.00 0.00 0.00 83 1032.6
20260830104600 51 337 1.0 3.0 0.00 0.00 0.00 83 1032.5
20260830103103 51 359 1.0 3.0 0.00 0.00 0.00 83 1032.3
20260830101600 51 35 0.0 3.0 0.00 0.00 0.00 83 1032.3
20260830100059 51 28 1.0 3.0 0.00 0.00 0.00 83 1032.4
20260830094559 51 25 0.0 3.0 0.00 0.00 0.00 83 1032.3
20260830093126 51 89 0.0 2.0 0.00 0.00 0.00 83 1032.2
20260830091557 51 89 0.0 2.0 0.00 0.00 0.00 83 1032.1
20260830084556 51 85 1.0 3.0 0.00 0.00 0.00 82 1032.0
20260830083056 51 96 1.0 4.0 0.00 0.00 0.00 82 1032.0
20260830081555 52 79 1.0 4.0 0.00 0.00 0.00 81 1031.8
20260830080057 52 96 2.0 4.0 0.00 0.00 0.00 81 1031.8
20260830074644 53 108 2.0 6.0 0.00 0.00 0.00 79 1031.6
20260830073105 55 73 3.0 6.0 0.00 0.00 0.00 77 1031.6
20260830071559 56 129 1.0 3.0 0.00 0.00 0.00 78 1031.6
20260830070055 56 129 2.0 5.0 0.00 0.00 0.00 77 1031.6
20260830064551 57 140 2.0 6.0 0.00 0.00 0.00 75 1031.5
20260830063050 57 138 3.0 6.0 0.00 0.00 0.00 74 1031.5
20260830061549 61 144 1.0 5.0 0.00 0.00 0.00 69 1031.5
20260830060049 61 253 1.0 6.0 0.00 0.00 0.00 69 1031.4
20260830054552 61 278 3.0 12.0 0.00 0.00 0.00 69 1031.4
20260830053054 62 247 2.0 8.0 0.00 0.00 0.00 68 1031.5
20260830051549 61 224 3.0 9.0 0.00 0.00 0.00 68 1031.4
20260830050042 61 287 5.0 10.0 0.00 0.00 0.00 69 1031.4
20260830044543 61 264 5.0 12.0 0.00 0.00 0.00 69 1031.4
20260830043039 61 263 5.0 12.0 0.00 0.00 0.00 70 1031.4
20260830041610 61 274 7.0 13.0 0.00 0.00 0.00 69 1031.5
20260830040044 60 272 3.0 13.0 0.00 0.00 0.00 70 1031.6
20260830034532 60 223 2.0 9.0 0.00 0.00 0.00 71 1031.7
20260830033029 59 269 5.0 9.0 0.00 0.00 0.00 71 1031.8
20260830031526 59 266 5.0 11.0 0.00 0.00 0.00 71 1031.9
20260830030028 58 272 6.0 14.0 0.00 0.00 0.00 72 1032.1
20260830024521 58 254 3.0 10.0 0.00 0.00 0.00 71 1032.4
20260830023019 57 252 4.0 7.0 0.00 0.00 0.00 74 1032.7